Location: Luxembourg
(49.6117°N, 6.1300°E)
Time: 02:22:00
(UTC+02:00)

OTV 5 (USA 277) - Visible Passes

Search period start: 16 October 2019 00:00
Search period end: 26 October 2019 00:00
Orbit: 310 x 324 km, 54.5° (Epoch: 08 October)

Date Brightness Start Highest point End Pass type
(mag) Time Alt. Az. Time Alt. Az. Time Alt. Az.
16 Oct ? 06:07:20 44° N 06:07:25 44° NNE 06:10:05 10° E visible
17 Oct ? 06:21:37 58° NW 06:22:03 79° NNE 06:24:48 10° ESE visible
18 Oct ? 06:36:01 40° WSW 06:36:35 48° SW 06:39:14 10° SE visible
19 Oct ? 06:50:31 21° WSW 06:51:00 22° SW 06:53:13 10° SSE visible
20 Oct ? 07:05:08 10° SW 07:05:17 10° SW 07:05:50 10° SW visible
